Year,Month,Day,Hour,Minute,Value (Times are PST for temperature in C)
2007,07,31,00,00,12.40
2007,07,31,00,01,12.40
2007,07,31,00,02,12.40
2007,07,31,00,03,12.40
2007,07,31,00,04,12.50
2007,07,31,00,05,12.40
2007,07,31,00,06,12.40
2007,07,31,00,07,12.40
2007,07,31,00,08,12.40
2007,07,31,00,09,12.40
2007,07,31,00,10,12.30
2007,07,31,00,11,12.30
2007,07,31,00,12,12.30
2007,07,31,00,13,12.30
2007,07,31,00,14,12.20
2007,07,31,00,15,12.20
2007,07,31,00,16,12.20
2007,07,31,00,17,12.20
2007,07,31,00,18,12.20
2007,07,31,00,19,12.20
2007,07,31,00,20,12.20
2007,07,31,00,21,12.20
2007,07,31,00,22,12.10
2007,07,31,00,23,12.10
2007,07,31,00,24,12.10
2007,07,31,00,25,12.10
2007,07,31,00,26,12.10
2007,07,31,00,27,12.10
2007,07,31,00,28,12.10
2007,07,31,00,29,12.00
2007,07,31,00,30,12.00
2007,07,31,00,31,12.00
2007,07,31,00,32,12.00
2007,07,31,00,33,12.00
2007,07,31,00,34,12.00
2007,07,31,00,35,11.90
2007,07,31,00,36,11.90
2007,07,31,00,37,11.90
2007,07,31,00,38,11.90
2007,07,31,00,39,11.80
2007,07,31,00,40,11.80
2007,07,31,00,41,11.70
2007,07,31,00,42,11.70
2007,07,31,00,43,11.60
2007,07,31,00,44,11.60
2007,07,31,00,45,11.60
2007,07,31,00,46,11.60
2007,07,31,00,47,11.60
2007,07,31,00,48,11.50
2007,07,31,00,49,11.60
2007,07,31,00,50,11.50
2007,07,31,00,51,11.50
2007,07,31,00,52,11.50
2007,07,31,00,53,11.50
2007,07,31,00,54,11.50
2007,07,31,00,55,11.60
2007,07,31,00,56,11.60
2007,07,31,00,57,11.60
2007,07,31,00,58,11.60
2007,07,31,00,59,11.60
2007,07,31,01,00,11.60
2007,07,31,01,01,11.50
2007,07,31,01,02,11.50
2007,07,31,01,03,11.50
2007,07,31,01,04,11.50
2007,07,31,01,05,11.40
2007,07,31,01,06,11.40
2007,07,31,01,07,11.40
2007,07,31,01,08,11.30
2007,07,31,01,09,11.30
2007,07,31,01,10,11.30
2007,07,31,01,11,11.20
2007,07,31,01,12,11.20
2007,07,31,01,13,11.20
2007,07,31,01,14,11.10
2007,07,31,01,15,11.10
2007,07,31,01,16,11.10
2007,07,31,01,17,11.10
2007,07,31,01,18,11.10
2007,07,31,01,19,11.10
2007,07,31,01,20,11.10
2007,07,31,01,21,11.10
2007,07,31,01,22,11.10
2007,07,31,01,23,11.10
2007,07,31,01,24,11.10
2007,07,31,01,25,11.10
2007,07,31,01,26,11.10
2007,07,31,01,27,11.10
2007,07,31,01,28,11.10
2007,07,31,01,29,11.10
2007,07,31,01,30,11.10
2007,07,31,01,31,11.00
2007,07,31,01,32,11.00
2007,07,31,01,33,11.00
2007,07,31,01,34,11.00
2007,07,31,01,35,10.90
2007,07,31,01,36,10.90
2007,07,31,01,37,10.90
2007,07,31,01,38,10.90
2007,07,31,01,39,10.80
2007,07,31,01,40,10.80
2007,07,31,01,41,10.80
2007,07,31,01,42,10.80
2007,07,31,01,43,10.80
2007,07,31,01,44,10.80
2007,07,31,01,45,10.80
2007,07,31,01,46,10.80
2007,07,31,01,47,10.80
2007,07,31,01,48,10.80
2007,07,31,01,49,10.80
2007,07,31,01,50,10.80
2007,07,31,01,51,10.80
2007,07,31,01,52,10.80
2007,07,31,01,53,10.80
2007,07,31,01,54,10.90
2007,07,31,01,55,10.90
2007,07,31,01,56,10.90
2007,07,31,01,57,10.90
2007,07,31,01,58,10.90
2007,07,31,01,59,10.90
2007,07,31,02,00,10.90
2007,07,31,02,01,10.90
2007,07,31,02,02,10.90
2007,07,31,02,03,10.90
2007,07,31,02,04,10.90
2007,07,31,02,05,10.90
2007,07,31,02,06,10.90
2007,07,31,02,07,10.90
2007,07,31,02,08,10.90
2007,07,31,02,09,10.90
2007,07,31,02,10,10.90
2007,07,31,02,11,10.90
2007,07,31,02,12,10.90
2007,07,31,02,13,10.90
2007,07,31,02,14,10.90
2007,07,31,02,15,10.90
2007,07,31,02,16,10.90
2007,07,31,02,17,10.90
2007,07,31,02,18,10.90
2007,07,31,02,19,10.90
2007,07,31,02,20,10.90
2007,07,31,02,21,10.90
2007,07,31,02,22,10.90
2007,07,31,02,23,10.80
2007,07,31,02,24,10.80
2007,07,31,02,25,10.80
2007,07,31,02,26,10.70
2007,07,31,02,27,10.70
2007,07,31,02,28,10.70
2007,07,31,02,29,10.60
2007,07,31,02,30,10.60
2007,07,31,02,31,10.60
2007,07,31,02,32,10.60
2007,07,31,02,33,10.50
2007,07,31,02,34,10.50
2007,07,31,02,35,10.50
2007,07,31,02,36,10.40
2007,07,31,02,37,10.40
2007,07,31,02,38,10.40
2007,07,31,02,39,10.30
2007,07,31,02,40,10.30
2007,07,31,02,41,10.30
2007,07,31,02,42,10.30
2007,07,31,02,43,10.20
2007,07,31,02,44,10.20
2007,07,31,02,45,10.20
2007,07,31,02,46,10.20
2007,07,31,02,47,10.20
2007,07,31,02,48,10.20
2007,07,31,02,49,10.20
2007,07,31,02,50,10.20
2007,07,31,02,51,10.20
2007,07,31,02,52,10.20
2007,07,31,02,53,10.20
2007,07,31,02,54,10.20
2007,07,31,02,55,10.20
2007,07,31,02,56,10.20
2007,07,31,02,57,10.20
2007,07,31,02,58,10.20
2007,07,31,02,59,10.20
2007,07,31,03,00,10.10
2007,07,31,03,01,10.10
2007,07,31,03,02,10.10
2007,07,31,03,03,10.10
2007,07,31,03,04,10.00
2007,07,31,03,05,10.00
2007,07,31,03,06,10.00
2007,07,31,03,07,10.00
2007,07,31,03,08,10.00
2007,07,31,03,09,10.00
2007,07,31,03,10,10.00
2007,07,31,03,11,10.00
2007,07,31,03,12,10.00
2007,07,31,03,13,10.00
2007,07,31,03,14,10.10
2007,07,31,03,15,10.10
2007,07,31,03,16,10.10
2007,07,31,03,17,10.10
2007,07,31,03,18,10.10
2007,07,31,03,19,10.10
2007,07,31,03,20,10.10
2007,07,31,03,21,10.10
2007,07,31,03,22,10.10
2007,07,31,03,23,10.10
2007,07,31,03,24,10.10
2007,07,31,03,25,10.10
2007,07,31,03,26,10.10
2007,07,31,03,27,10.10
2007,07,31,03,28,10.00
2007,07,31,03,29,10.00
2007,07,31,03,30,10.00
2007,07,31,03,31,9.90
2007,07,31,03,32,9.90
2007,07,31,03,33,9.90
2007,07,31,03,34,9.80
2007,07,31,03,35,9.80
2007,07,31,03,36,9.80
2007,07,31,03,37,9.80
2007,07,31,03,38,9.80
2007,07,31,03,39,9.80
2007,07,31,03,40,9.80
2007,07,31,03,41,9.80
2007,07,31,03,42,9.80
2007,07,31,03,43,9.80
2007,07,31,03,44,9.80
2007,07,31,03,45,9.80
2007,07,31,03,46,9.80
2007,07,31,03,47,9.90
2007,07,31,03,48,9.90
2007,07,31,03,49,9.90
2007,07,31,03,50,9.90
2007,07,31,03,51,9.90
2007,07,31,03,52,9.90
2007,07,31,03,53,9.90
2007,07,31,03,54,10.00
2007,07,31,03,55,10.00
2007,07,31,03,56,10.00
2007,07,31,03,57,10.00
2007,07,31,03,58,10.10
2007,07,31,03,59,10.10
2007,07,31,04,00,10.10
2007,07,31,04,01,10.10
2007,07,31,04,02,10.10
2007,07,31,04,03,10.10
2007,07,31,04,04,10.10
2007,07,31,04,05,10.10
2007,07,31,04,06,10.10
2007,07,31,04,07,10.10
2007,07,31,04,08,10.00
2007,07,31,04,09,10.00
2007,07,31,04,10,10.00
2007,07,31,04,11,9.90
2007,07,31,04,12,9.90
2007,07,31,04,13,9.80
2007,07,31,04,14,9.80
2007,07,31,04,15,9.80
2007,07,31,04,16,9.80
2007,07,31,04,17,9.70
2007,07,31,04,18,9.70
2007,07,31,04,19,9.60
2007,07,31,04,20,9.60
2007,07,31,04,21,9.60
2007,07,31,04,22,9.60
2007,07,31,04,23,9.60
2007,07,31,04,24,9.60
2007,07,31,04,25,9.60
2007,07,31,04,26,9.50
2007,07,31,04,27,9.50
2007,07,31,04,28,9.50
2007,07,31,04,29,9.50
2007,07,31,04,30,9.50
2007,07,31,04,31,9.50
2007,07,31,04,32,9.50
2007,07,31,04,33,9.50
2007,07,31,04,34,9.50
2007,07,31,04,35,9.50
2007,07,31,04,36,9.60
2007,07,31,04,37,9.60
2007,07,31,04,38,9.60
2007,07,31,04,39,9.50
2007,07,31,04,40,9.50
2007,07,31,04,41,9.50
2007,07,31,04,42,9.50
2007,07,31,04,43,9.50
2007,07,31,04,44,9.50
2007,07,31,04,45,9.50
2007,07,31,04,46,9.50
2007,07,31,04,47,9.50
2007,07,31,04,48,9.50
2007,07,31,04,49,9.50
2007,07,31,04,50,9.50
2007,07,31,04,51,9.60
2007,07,31,04,52,9.50
2007,07,31,04,53,9.60
2007,07,31,04,54,9.60
2007,07,31,04,55,9.50
2007,07,31,04,56,9.50
2007,07,31,04,57,9.40
2007,07,31,04,58,9.30
2007,07,31,04,59,9.30
2007,07,31,05,00,9.20
2007,07,31,05,01,9.20
2007,07,31,05,02,9.10
2007,07,31,05,03,9.10
2007,07,31,05,04,9.10
2007,07,31,05,05,9.10
2007,07,31,05,06,9.00
2007,07,31,05,07,9.00
2007,07,31,05,08,9.00
2007,07,31,05,09,9.00
2007,07,31,05,10,9.00
2007,07,31,05,11,9.10
2007,07,31,05,12,9.10
2007,07,31,05,13,9.10
2007,07,31,05,14,9.10
2007,07,31,05,15,9.10
2007,07,31,05,16,9.20
2007,07,31,05,17,9.20
2007,07,31,05,18,9.20
2007,07,31,05,19,9.20
2007,07,31,05,20,9.20
2007,07,31,05,21,9.20
2007,07,31,05,22,9.20
2007,07,31,05,23,9.20
2007,07,31,05,24,9.20
2007,07,31,05,25,9.20
2007,07,31,05,26,9.10
2007,07,31,05,27,9.10
2007,07,31,05,28,9.10
2007,07,31,05,29,9.10
2007,07,31,05,30,9.10
2007,07,31,05,31,9.10
2007,07,31,05,32,9.10
2007,07,31,05,33,9.00
2007,07,31,05,34,9.00
2007,07,31,05,35,9.00
2007,07,31,05,36,9.00
2007,07,31,05,37,9.00
2007,07,31,05,38,9.00
2007,07,31,05,39,9.00
2007,07,31,05,40,9.00
2007,07,31,05,41,8.90
2007,07,31,05,42,8.90
2007,07,31,05,43,8.90
2007,07,31,05,44,8.90
2007,07,31,05,45,8.80
2007,07,31,05,46,8.80
2007,07,31,05,47,8.70
2007,07,31,05,48,8.70
2007,07,31,05,49,8.70
2007,07,31,05,50,8.70
2007,07,31,05,51,8.70
2007,07,31,05,52,8.70
2007,07,31,05,53,8.70
2007,07,31,05,54,8.70
2007,07,31,05,55,8.70
2007,07,31,05,56,8.70
2007,07,31,05,57,8.70
2007,07,31,05,58,8.70
2007,07,31,05,59,8.70
2007,07,31,06,00,8.70
2007,07,31,06,01,8.70
2007,07,31,06,02,8.80
2007,07,31,06,03,8.80
2007,07,31,06,04,8.80
2007,07,31,06,05,8.80
2007,07,31,06,06,8.80
2007,07,31,06,07,8.80
2007,07,31,06,08,8.80
2007,07,31,06,09,8.90
2007,07,31,06,10,8.90
2007,07,31,06,11,8.90
2007,07,31,06,12,9.00
2007,07,31,06,13,9.00
2007,07,31,06,14,9.00
2007,07,31,06,15,9.00
2007,07,31,06,16,9.10
2007,07,31,06,17,9.10
2007,07,31,06,18,9.10
2007,07,31,06,19,9.10
2007,07,31,06,20,9.10
2007,07,31,06,21,9.10
2007,07,31,06,22,9.20
2007,07,31,06,23,9.20
2007,07,31,06,24,9.20
2007,07,31,06,25,9.20
2007,07,31,06,26,9.20
2007,07,31,06,27,9.20
2007,07,31,06,28,9.20
2007,07,31,06,29,9.20
2007,07,31,06,30,9.20
2007,07,31,06,31,9.30
2007,07,31,06,32,9.30
2007,07,31,06,33,9.30
2007,07,31,06,34,9.30
2007,07,31,06,35,9.30
2007,07,31,06,36,9.30
2007,07,31,06,37,9.40
2007,07,31,06,38,9.40
2007,07,31,06,39,9.40
2007,07,31,06,40,9.50
2007,07,31,06,41,9.60
2007,07,31,06,42,9.60
2007,07,31,06,43,9.60
2007,07,31,06,44,9.70
2007,07,31,06,45,9.80
2007,07,31,06,46,9.80
2007,07,31,06,47,9.90
2007,07,31,06,48,10.10
2007,07,31,06,49,10.20
2007,07,31,06,50,10.30
2007,07,31,06,51,10.30
2007,07,31,06,52,10.40
2007,07,31,06,53,10.40
2007,07,31,06,54,10.40
2007,07,31,06,55,10.40
2007,07,31,06,56,10.40
2007,07,31,06,57,10.40
2007,07,31,06,58,10.50
2007,07,31,06,59,10.60
2007,07,31,07,00,10.70
2007,07,31,07,01,10.80
2007,07,31,07,02,10.80
2007,07,31,07,03,10.80
2007,07,31,07,04,10.90
2007,07,31,07,05,10.90
2007,07,31,07,06,11.00
2007,07,31,07,07,11.00
2007,07,31,07,08,11.10
2007,07,31,07,09,11.20
2007,07,31,07,10,11.30
2007,07,31,07,11,11.30
2007,07,31,07,12,11.40
2007,07,31,07,13,11.50
2007,07,31,07,14,11.50
2007,07,31,07,15,11.50
2007,07,31,07,16,11.60
2007,07,31,07,17,11.70
2007,07,31,07,18,11.70
2007,07,31,07,19,11.70
2007,07,31,07,20,11.80
2007,07,31,07,21,11.80
2007,07,31,07,22,11.80
2007,07,31,07,23,11.80
2007,07,31,07,24,11.90
2007,07,31,07,25,11.90
2007,07,31,07,26,12.00
2007,07,31,07,27,12.00
2007,07,31,07,28,12.10
2007,07,31,07,29,12.20
2007,07,31,07,30,12.30
2007,07,31,07,31,12.40
2007,07,31,07,32,12.50
2007,07,31,07,33,12.60
2007,07,31,07,34,12.70
2007,07,31,07,35,12.90
2007,07,31,07,36,13.00
2007,07,31,07,37,13.10
2007,07,31,07,38,13.20
2007,07,31,07,39,13.40
2007,07,31,07,40,13.50
2007,07,31,07,41,13.60
2007,07,31,07,42,13.70
2007,07,31,07,43,13.70
2007,07,31,07,44,13.80
2007,07,31,07,45,13.80
2007,07,31,07,46,13.90
2007,07,31,07,47,13.90
2007,07,31,07,48,14.00
2007,07,31,07,49,14.00
2007,07,31,07,50,14.10
2007,07,31,07,51,14.20
2007,07,31,07,52,14.30
2007,07,31,07,53,14.40
2007,07,31,07,54,14.60
2007,07,31,07,55,14.70
2007,07,31,07,56,14.80
2007,07,31,07,57,14.90
2007,07,31,07,58,15.00
2007,07,31,07,59,15.00
2007,07,31,08,00,15.00
2007,07,31,08,01,15.00
2007,07,31,08,02,15.10
2007,07,31,08,03,15.20
2007,07,31,08,04,15.30
2007,07,31,08,05,15.40
2007,07,31,08,06,15.50
2007,07,31,08,07,15.60
2007,07,31,08,08,15.60
2007,07,31,08,09,15.60
2007,07,31,08,10,15.70
2007,07,31,08,11,15.80
2007,07,31,08,12,15.80
2007,07,31,08,13,15.90
2007,07,31,08,14,15.90
2007,07,31,08,15,16.00
2007,07,31,08,16,16.00
2007,07,31,08,17,16.10
2007,07,31,08,18,16.10
2007,07,31,08,19,16.20
2007,07,31,08,20,16.20
2007,07,31,08,21,16.30
2007,07,31,08,22,16.30
2007,07,31,08,23,16.40
2007,07,31,08,24,16.40
2007,07,31,08,25,16.40
2007,07,31,08,26,16.50
2007,07,31,08,27,16.60
2007,07,31,08,28,16.60
2007,07,31,08,29,16.70
2007,07,31,08,30,16.80
2007,07,31,08,31,16.90
2007,07,31,08,32,16.90
2007,07,31,08,33,17.00
2007,07,31,08,34,17.00
2007,07,31,08,35,17.10
2007,07,31,08,36,17.10
2007,07,31,08,37,17.10
2007,07,31,08,38,17.20
2007,07,31,08,39,17.30
2007,07,31,08,40,17.40
2007,07,31,08,41,17.50
2007,07,31,08,42,17.60
2007,07,31,08,43,17.80
2007,07,31,08,44,17.90
2007,07,31,08,45,18.10
2007,07,31,08,46,18.20
2007,07,31,08,47,18.30
2007,07,31,08,48,18.30
2007,07,31,08,49,18.40
2007,07,31,08,50,18.40
2007,07,31,08,51,18.30
2007,07,31,08,52,18.30
2007,07,31,08,53,18.30
2007,07,31,08,54,18.20
2007,07,31,08,55,18.20
2007,07,31,08,56,18.20
2007,07,31,08,57,18.20
2007,07,31,08,58,18.30
2007,07,31,08,59,18.30
2007,07,31,09,00,18.30
2007,07,31,09,01,18.30
2007,07,31,09,02,18.30
2007,07,31,09,03,18.30
2007,07,31,09,04,18.30
2007,07,31,09,05,18.30
2007,07,31,09,06,18.30
2007,07,31,09,07,18.30
2007,07,31,09,08,18.30
2007,07,31,09,09,18.30
2007,07,31,09,10,18.40
2007,07,31,09,11,18.40
2007,07,31,09,12,18.40
2007,07,31,09,13,18.40
2007,07,31,09,14,18.40
2007,07,31,09,15,18.40
2007,07,31,09,16,18.40
2007,07,31,09,17,18.40
2007,07,31,09,18,18.40
2007,07,31,09,19,18.50
2007,07,31,09,20,18.50
2007,07,31,09,21,18.50
2007,07,31,09,22,18.50
2007,07,31,09,23,18.50
2007,07,31,09,24,18.50
2007,07,31,09,25,18.50
2007,07,31,09,26,18.60
2007,07,31,09,27,18.60
2007,07,31,09,28,18.60
2007,07,31,09,29,18.60
2007,07,31,09,30,18.50
2007,07,31,09,31,18.50
2007,07,31,09,32,18.60
2007,07,31,09,33,18.60
2007,07,31,09,34,18.60
2007,07,31,09,35,18.60
2007,07,31,09,36,18.60
2007,07,31,09,37,18.60
2007,07,31,09,38,18.70
2007,07,31,09,39,18.70
2007,07,31,09,40,18.80
2007,07,31,09,41,18.80
2007,07,31,09,42,18.90
2007,07,31,09,43,18.90
2007,07,31,09,44,18.80
2007,07,31,09,45,18.80
2007,07,31,09,46,18.80
2007,07,31,09,47,18.70
2007,07,31,09,48,18.70
2007,07,31,09,49,18.80
2007,07,31,09,50,18.80
2007,07,31,09,51,18.80
2007,07,31,09,52,18.90
2007,07,31,09,53,19.00
2007,07,31,09,54,19.10
2007,07,31,09,55,19.10
2007,07,31,09,56,19.10
2007,07,31,09,57,19.10
2007,07,31,09,58,19.20
2007,07,31,09,59,19.20
2007,07,31,10,00,19.10
2007,07,31,10,01,19.10
2007,07,31,10,02,19.00
2007,07,31,10,03,18.90
2007,07,31,10,04,18.90
2007,07,31,10,05,19.00
2007,07,31,10,06,19.10
2007,07,31,10,07,19.10
2007,07,31,10,08,19.00
2007,07,31,10,09,18.90
2007,07,31,10,10,18.90
2007,07,31,10,11,18.80
2007,07,31,10,12,18.80
2007,07,31,10,13,18.80
2007,07,31,10,14,18.90
2007,07,31,10,15,18.90
2007,07,31,10,16,18.80
2007,07,31,10,17,18.80
2007,07,31,10,18,18.70
2007,07,31,10,19,18.70
2007,07,31,10,20,18.70
2007,07,31,10,21,18.80
2007,07,31,10,22,18.80
2007,07,31,10,23,18.90
2007,07,31,10,24,18.90
2007,07,31,10,25,18.90
2007,07,31,10,26,19.00
2007,07,31,10,27,19.00
2007,07,31,10,28,19.10
2007,07,31,10,29,19.10
2007,07,31,10,30,19.20
2007,07,31,10,31,19.20
2007,07,31,10,32,19.20
2007,07,31,10,33,19.20
2007,07,31,10,34,19.30
2007,07,31,10,35,19.40
2007,07,31,10,36,19.40
2007,07,31,10,37,19.30
2007,07,31,10,38,19.10
2007,07,31,10,39,19.00
2007,07,31,10,40,19.00
2007,07,31,10,41,18.90
2007,07,31,10,42,18.90
2007,07,31,10,43,18.90
2007,07,31,10,44,18.90
2007,07,31,10,45,18.90
2007,07,31,10,46,18.90
2007,07,31,10,47,18.90
2007,07,31,10,48,18.90
2007,07,31,10,49,18.90
2007,07,31,10,50,18.90
2007,07,31,10,51,18.90
2007,07,31,10,52,18.90
2007,07,31,10,53,18.90
2007,07,31,10,54,18.90
2007,07,31,10,55,18.90
2007,07,31,10,56,19.00
2007,07,31,10,57,19.10
2007,07,31,10,58,19.20
2007,07,31,10,59,19.30
2007,07,31,11,00,19.30
2007,07,31,11,01,19.30
2007,07,31,11,02,19.20
2007,07,31,11,03,19.20
2007,07,31,11,04,19.10
2007,07,31,11,05,19.00
2007,07,31,11,06,19.00
2007,07,31,11,07,19.10
2007,07,31,11,08,19.00
2007,07,31,11,09,19.00
2007,07,31,11,10,18.90
2007,07,31,11,11,18.90
2007,07,31,11,12,18.90
2007,07,31,11,13,19.00
2007,07,31,11,14,19.10
2007,07,31,11,15,19.20
2007,07,31,11,16,19.20
2007,07,31,11,17,19.30
2007,07,31,11,18,19.40
2007,07,31,11,19,19.40
2007,07,31,11,20,19.50
2007,07,31,11,21,19.50
2007,07,31,11,22,19.60
2007,07,31,11,23,19.60
2007,07,31,11,24,19.70
2007,07,31,11,25,19.80
2007,07,31,11,26,19.90
2007,07,31,11,27,20.10
2007,07,31,11,28,20.20
2007,07,31,11,29,20.20
2007,07,31,11,30,20.20
2007,07,31,11,31,20.20
2007,07,31,11,32,20.20
2007,07,31,11,33,20.20
2007,07,31,11,34,20.10
2007,07,31,11,35,20.00
2007,07,31,11,36,19.90
2007,07,31,11,37,19.80
2007,07,31,11,38,19.70
2007,07,31,11,39,19.60
2007,07,31,11,40,19.60
2007,07,31,11,41,19.50
2007,07,31,11,42,19.40
2007,07,31,11,43,19.40
2007,07,31,11,44,19.30
2007,07,31,11,45,19.30
2007,07,31,11,46,19.20
2007,07,31,11,47,19.20
2007,07,31,11,48,19.20
2007,07,31,11,49,19.30
2007,07,31,11,50,19.40
2007,07,31,11,51,19.50
2007,07,31,11,52,19.70
2007,07,31,11,53,19.80
2007,07,31,11,54,19.90
2007,07,31,11,55,19.90
2007,07,31,11,56,19.90
2007,07,31,11,57,19.90
2007,07,31,11,58,19.90
2007,07,31,11,59,19.90
2007,07,31,12,00,19.90
2007,07,31,12,01,19.90
2007,07,31,12,02,19.90
2007,07,31,12,03,19.80
2007,07,31,12,04,19.70
2007,07,31,12,05,19.70
2007,07,31,12,06,19.70
2007,07,31,12,07,19.70
2007,07,31,12,08,19.70
2007,07,31,12,09,19.80
2007,07,31,12,10,19.90
2007,07,31,12,11,19.90
2007,07,31,12,12,19.90
2007,07,31,12,13,19.90
2007,07,31,12,14,19.80
2007,07,31,12,15,19.70
2007,07,31,12,16,19.60
2007,07,31,12,17,19.60
2007,07,31,12,18,19.60
2007,07,31,12,19,19.80
2007,07,31,12,20,19.90
2007,07,31,12,21,20.00
2007,07,31,12,22,20.10
2007,07,31,12,23,20.20
2007,07,31,12,24,20.10
2007,07,31,12,25,20.00
2007,07,31,12,26,20.00
2007,07,31,12,27,20.10
2007,07,31,12,28,20.20
2007,07,31,12,29,20.40
2007,07,31,12,30,20.40
2007,07,31,12,31,20.50
2007,07,31,12,32,20.60
2007,07,31,12,33,20.80
2007,07,31,12,34,20.80
2007,07,31,12,35,20.90
2007,07,31,12,36,20.80
2007,07,31,12,37,20.80
2007,07,31,12,38,20.80
2007,07,31,12,39,20.80
2007,07,31,12,40,20.70
2007,07,31,12,41,20.70
2007,07,31,12,42,20.70
2007,07,31,12,43,20.70
2007,07,31,12,44,20.70
2007,07,31,12,45,20.70
2007,07,31,12,46,20.70
2007,07,31,12,47,20.70
2007,07,31,12,48,20.60
2007,07,31,12,49,20.70
2007,07,31,12,50,20.70
2007,07,31,12,51,20.70
2007,07,31,12,52,20.60
2007,07,31,12,53,20.60
2007,07,31,12,54,20.60
2007,07,31,12,55,20.70
2007,07,31,12,56,20.70
2007,07,31,12,57,20.80
2007,07,31,12,58,20.90
2007,07,31,12,59,20.90
2007,07,31,13,00,20.80
2007,07,31,13,01,20.80
2007,07,31,13,02,20.90
2007,07,31,13,03,20.90
2007,07,31,13,04,20.90
2007,07,31,13,05,20.90
2007,07,31,13,06,20.90
2007,07,31,13,07,21.00
2007,07,31,13,08,21.20
2007,07,31,13,09,21.30
2007,07,31,13,10,21.40
2007,07,31,13,11,21.40
2007,07,31,13,12,21.50
2007,07,31,13,13,21.60
2007,07,31,13,14,21.70
2007,07,31,13,15,21.80
2007,07,31,13,16,21.70
2007,07,31,13,17,21.70
2007,07,31,13,18,21.70
2007,07,31,13,19,21.60
2007,07,31,13,20,21.70
2007,07,31,13,21,21.70
2007,07,31,13,22,21.70
2007,07,31,13,23,21.80
2007,07,31,13,24,22.10
2007,07,31,13,25,22.10
2007,07,31,13,26,22.00
2007,07,31,13,27,21.90
2007,07,31,13,28,21.90
2007,07,31,13,29,21.90
2007,07,31,13,30,21.90
2007,07,31,13,31,22.10
2007,07,31,13,32,22.20
2007,07,31,13,33,22.20
2007,07,31,13,34,22.20
2007,07,31,13,35,22.20
2007,07,31,13,36,22.20
2007,07,31,13,37,22.10
2007,07,31,13,38,22.10
2007,07,31,13,39,22.10
2007,07,31,13,40,22.30
2007,07,31,13,41,22.50
2007,07,31,13,42,22.60
2007,07,31,13,43,22.70
2007,07,31,13,44,22.80
2007,07,31,13,45,22.90
2007,07,31,13,46,22.90
2007,07,31,13,47,23.00
2007,07,31,13,48,22.90
2007,07,31,13,49,22.90
2007,07,31,13,50,22.90
2007,07,31,13,51,22.70
2007,07,31,13,52,22.60
2007,07,31,13,53,22.60
2007,07,31,13,54,22.60
2007,07,31,13,55,22.70
2007,07,31,13,56,22.80
2007,07,31,13,57,22.90
2007,07,31,13,58,23.00
2007,07,31,13,59,23.10
2007,07,31,14,00,23.20
2007,07,31,14,01,23.20
2007,07,31,14,02,23.30
2007,07,31,14,03,23.10
2007,07,31,14,04,23.10
2007,07,31,14,05,23.00
2007,07,31,14,06,22.90
2007,07,31,14,07,22.80
2007,07,31,14,08,22.90
2007,07,31,14,09,22.90
2007,07,31,14,10,22.90
2007,07,31,14,11,22.70
2007,07,31,14,12,22.70
2007,07,31,14,13,22.70
2007,07,31,14,14,22.80
2007,07,31,14,15,22.90
2007,07,31,14,16,23.00
2007,07,31,14,17,23.10
2007,07,31,14,18,23.20
2007,07,31,14,19,23.30
2007,07,31,14,20,23.40
2007,07,31,14,21,23.50
2007,07,31,14,22,23.60
2007,07,31,14,23,23.70
2007,07,31,14,24,23.70
2007,07,31,14,25,23.60
2007,07,31,14,26,23.60
2007,07,31,14,27,23.60
2007,07,31,14,28,23.60
2007,07,31,14,29,23.70
2007,07,31,14,30,23.60
2007,07,31,14,31,23.50
2007,07,31,14,32,23.40
2007,07,31,14,33,23.30
2007,07,31,14,34,23.10
2007,07,31,14,35,23.10
2007,07,31,14,36,23.00
2007,07,31,14,37,22.90
2007,07,31,14,38,22.70
2007,07,31,14,39,22.50
2007,07,31,14,40,22.40
2007,07,31,14,41,22.30
2007,07,31,14,42,22.30
2007,07,31,14,43,22.30
2007,07,31,14,44,22.20
2007,07,31,14,45,22.30
2007,07,31,14,46,22.40
2007,07,31,14,47,22.40
2007,07,31,14,48,22.60
2007,07,31,14,49,22.70
2007,07,31,14,50,22.80
2007,07,31,14,51,22.80
2007,07,31,14,52,22.70
2007,07,31,14,53,22.70
2007,07,31,14,54,22.80
2007,07,31,14,55,22.80
2007,07,31,14,56,22.90
2007,07,31,14,57,22.80
2007,07,31,14,58,22.90
2007,07,31,14,59,23.10
2007,07,31,15,00,23.20
2007,07,31,15,01,23.20
2007,07,31,15,02,23.20
2007,07,31,15,03,23.40
2007,07,31,15,04,23.40
2007,07,31,15,05,23.40
2007,07,31,15,06,23.40
2007,07,31,15,07,23.50
2007,07,31,15,08,23.40
2007,07,31,15,09,23.40
2007,07,31,15,10,23.50
2007,07,31,15,11,23.40
2007,07,31,15,12,23.40
2007,07,31,15,13,23.40
2007,07,31,15,14,23.40
2007,07,31,15,15,23.50
2007,07,31,15,16,23.60
2007,07,31,15,17,23.70
2007,07,31,15,18,23.60
2007,07,31,15,19,23.50
2007,07,31,15,20,23.50
2007,07,31,15,21,23.60
2007,07,31,15,22,23.50
2007,07,31,15,23,23.40
2007,07,31,15,24,23.40
2007,07,31,15,25,23.30
2007,07,31,15,26,23.10
2007,07,31,15,27,23.10
2007,07,31,15,28,23.10
2007,07,31,15,29,23.10
2007,07,31,15,30,23.10
2007,07,31,15,31,23.10
2007,07,31,15,32,23.10
2007,07,31,15,33,23.10
2007,07,31,15,34,23.10
2007,07,31,15,35,23.10
2007,07,31,15,36,23.10
2007,07,31,15,37,23.10
2007,07,31,15,38,23.10
2007,07,31,15,39,23.20
2007,07,31,15,40,23.20
2007,07,31,15,41,23.20
2007,07,31,15,42,23.30
2007,07,31,15,43,23.40
2007,07,31,15,44,23.40
2007,07,31,15,45,23.40
2007,07,31,15,46,23.50
2007,07,31,15,47,23.60
2007,07,31,15,48,23.80
2007,07,31,15,49,23.80
2007,07,31,15,50,23.70
2007,07,31,15,51,23.50
2007,07,31,15,52,23.50
2007,07,31,15,53,23.60
2007,07,31,15,54,23.80
2007,07,31,15,55,23.90
2007,07,31,15,56,24.00
2007,07,31,15,57,24.10
2007,07,31,15,58,24.10
2007,07,31,15,59,24.10
2007,07,31,16,00,24.00
2007,07,31,16,01,23.90
2007,07,31,16,02,23.80
2007,07,31,16,03,23.80
2007,07,31,16,04,23.90
2007,07,31,16,05,23.90
2007,07,31,16,06,24.00
2007,07,31,16,07,24.10
2007,07,31,16,08,24.00
2007,07,31,16,09,24.00
2007,07,31,16,10,24.00
2007,07,31,16,11,24.10
2007,07,31,16,12,24.20
2007,07,31,16,13,24.10
2007,07,31,16,14,24.10
2007,07,31,16,15,24.20
2007,07,31,16,16,24.20
2007,07,31,16,17,24.30
2007,07,31,16,18,24.30
2007,07,31,16,19,24.30
2007,07,31,16,20,24.40
2007,07,31,16,21,24.40
2007,07,31,16,22,24.40
2007,07,31,16,23,24.50
2007,07,31,16,24,24.60
2007,07,31,16,25,24.70
2007,07,31,16,26,24.70
2007,07,31,16,27,24.70
2007,07,31,16,28,24.70
2007,07,31,16,29,24.70
2007,07,31,16,30,24.70
2007,07,31,16,31,24.70
2007,07,31,16,32,24.80
2007,07,31,16,33,24.70
2007,07,31,16,34,24.70
2007,07,31,16,35,24.60
2007,07,31,16,36,24.60
2007,07,31,16,37,24.60
2007,07,31,16,38,24.70
2007,07,31,16,39,24.70
2007,07,31,16,40,24.60
2007,07,31,16,41,24.60
2007,07,31,16,42,24.60
2007,07,31,16,43,24.60
2007,07,31,16,44,24.70
2007,07,31,16,45,24.70
2007,07,31,16,46,24.50
2007,07,31,16,47,24.40
2007,07,31,16,48,24.30
2007,07,31,16,49,24.10
2007,07,31,16,50,24.00
2007,07,31,16,51,24.00
2007,07,31,16,52,23.90
2007,07,31,16,53,24.00
2007,07,31,16,54,24.10
2007,07,31,16,55,24.20
2007,07,31,16,56,24.20
2007,07,31,16,57,24.20
2007,07,31,16,58,24.20
2007,07,31,16,59,24.30
2007,07,31,17,00,24.30
2007,07,31,17,01,24.30
2007,07,31,17,02,24.30
2007,07,31,17,03,24.40
2007,07,31,17,04,24.50
2007,07,31,17,05,24.50
2007,07,31,17,06,24.50
2007,07,31,17,07,24.60
2007,07,31,17,08,24.50
2007,07,31,17,09,24.50
2007,07,31,17,10,24.60
2007,07,31,17,11,24.70
2007,07,31,17,12,24.70
2007,07,31,17,13,24.70
2007,07,31,17,14,24.70
2007,07,31,17,15,24.70
2007,07,31,17,16,24.60
2007,07,31,17,17,24.50
2007,07,31,17,18,24.50
2007,07,31,17,19,24.40
2007,07,31,17,20,24.50
2007,07,31,17,21,24.60
2007,07,31,17,22,24.60
2007,07,31,17,23,24.50
2007,07,31,17,24,24.60
2007,07,31,17,25,24.60
2007,07,31,17,26,24.50
2007,07,31,17,27,24.60